Wind_Speed
3 1 1 0 4 4 4 4 2 7 5 2 7 2 2 5 3 3 12 16 18 17 16 17 19 16 14 12 11 9 8 9 11 15 15 13 9 4 3 3 5 9 10 10 10 9 10 11 11
3 1 1 2 3 5 5 2 6 4 5 11 7 5 3 4 4 9 15 17 18 16 16 20 19 16 14 11 10 8 6 6 7 8 10 8 6 3 2 5 7 6 7 8 9 9 9 9 9
4 1 2 2 1 3 4 1 8 11 7 5 3 4 2 3 4 18 12 21 18 16 17 19 19 16 13 10 9 7 6 5 5 6 6 5 2 2 3 5 6 7 7 7 7 8 8 8 8
4 0 1 3 4 4 4 2 9 11 5 3 5 5 4 4 14 10 20 20 17 16 17 17 18 16 13 10 7 5 5 5 5 5 5 2 3 4 5 6 7 7 7 8 6 6 6 6 6
3 0 2 2 2 2 2 1 13 7 6 5 1 4 4 11 6 16 21 19 17 17 16 16 14 14 12 9 7 5 5 4 5 5 5 5 5 6 6 6 6 5 5 6 6 6 6 6 7
0 1 4 3 1 3 4 4 10 3 5 6 4 8 6 8 10 21 21 17 15 16 17 15 14 11 10 9 7 6 6 6 7 6 6 5 5 5 5 5 6 6 6 6 6 7 7 8 9
4 2 2 3 2 2 4 5 4 2 5 4 8 6 3 11 16 22 20 17 16 15 16 15 14 12 10 8 7 8 8 8 7 7 7 6 6 5 6 6 6 6 6 5 5 6 7 8 8
4 3 2 1 3 3 4 1 2 1 3 7 4 3 4 17 23 23 19 18 16 16 15 15 14 12 9 8 9 9 8 8 8 6 5 5 5 5 5 4 4 4 4 5 6 6 7 8 9
4 3 3 2 1 3 4 2 2 2 5 4 3 3 4 22 25 25 20 20 16 17 15 15 14 13 10 9 10 10 9 7 6 5 4 4 4 4 5 5 6 7 7 8 7 7 9 9 10
4 2 2 2 1 2 4 2 1 3 5 5 5 5 11 25 27 26 22 24 21 19 16 15 13 11 10 9 9 9 8 6 4 3 3 3 3 4 5 6 7 8 9 9 9 9 10 11 10
3 4 2 3 1 3 5 2 1 4 5 5 6 12 19 27 27 24 20 21 21 19 17 15 14 12 10 9 9 8 7 6 5 4 3 3 3 4 5 6 7 7 8 9 9 10 11 11 12
8 5 4 5 1 1 3 5 2 6 1 2 5 11 21 28 28 25 20 19 20 19 16 15 14 13 11 10 9 7 6 5 4 3 3 2 3 4 5 6 7 8 9 10 12 13 14 14 15
14 12 8 4 2 1 3 4 4 7 7 6 5 11 19 24 25 19 17 16 18 17 15 13 13 12 11 11 10 8 6 5 4 3 1 1 2 4 7 8 10 11 12 13 14 16 17 18 18
13 21 11 6 3 1 3 4 3 2 4 6 6 11 15 22 24 20 20 17 16 14 13 13 11 11 12 10 9 7 6 4 3 1 1 3 5 7 9 11 12 13 15 16 18 19 21 22 23
10 13 10 10 6 5 2 7 4 3 4 5 8 10 13 16 18 19 19 17 14 13 12 11 12 12 11 10 9 7 6 4 3 2 4 5 6 8 11 12 14 15 17 19 22 23 24 25 25
3 6 15 11 8 8 6 10 5 4 4 7 8 9 11 15 17 16 16 16 14 12 11 9 10 11 10 9 8 8 7 5 4 4 6 7 9 11 13 15 17 20 21 23 25 25 27 27 26
3 4 16 19 8 5 10 13 4 5 4 9 9 9 10 12 14 16 17 17 15 12 10 8 7 7 7 8 8 8 7 7 8 8 9 9 11 13 15 17 18 22 25 25 26 26 28 31 25
4 4 11 20 9 6 13 17 7 4 4 9 9 8 9 10 11 12 16 16 15 13 12 11 10 9 9 9 9 9 9 9 10 12 11 12 12 14 16 17 20 23 25 26 28 27 24 25 24
6 6 3 1 2 5 15 15 13 8 6 7 9 9 10 10 7 10 14 16 16 17 15 14 12 12 12 12 12 11 11 12 15 13 10 13 16 18 19 24 25 26 25 23 22 23 23 23 19
1 5 7 3 4 6 7 15 10 7 8 8 7 8 10 12 10 13 15 16 18 16 15 16 15 14 14 15 15 15 15 16 11 10 12 13 17 18 20 20 19 19 18 18 18 18 19 19 16
5 6 4 4 3 1 1 8 10 12 9 3 2 5 10 14 14 12 13 14 17 17 16 15 14 14 13 13 14 14 12 11 7 5 7 10 12 13 13 14 14 14 15 15 16 17 17 19 19
3 4 5 8 6 5 7 4 13 18 10 5 3 5 9 13 13 13 13 13 14 13 13 12 11 11 10 10 9 6 6 6 3 3 6 7 7 8 9 11 12 14 14 15 16 17 17 19 20
2 4 5 5 6 1 5 4 5 9 14 9 7 8 10 12 14 15 15 14 14 13 13 11 10 9 7 6 7 7 7 7 7 5 6 8 9 11 12 12 13 13 14 14 15 16 16 17 17
12 7 6 4 2 5 9 8 3 7 15 10 10 11 14 16 18 19 20 20 21 19 18 16 15 19 17 15 14 12 12 8 8 8 9 11 12 14 16 18 19 19 18 19 19 18 17 18 18
5 8 2 3 3 5 0 9 9 3 5 15 19 19 19 20 22 25 27 27 27 26 26 24 21 25 22 19 18 16 14 9 11 12 14 16 18 20 19 18 18 18 19 20 20 20 20 20 20
9 5 4 5 5 3 2 6 2 4 6 16 18 21 23 24 28 30 32 31 27 24 22 18 16 18 15 13 12 13 13 17 16 14 14 15 16 17 18 18 19 19 20 21 21 23 23 23 23
6 6 2 4 2 2 4 2 3 8 13 20 23 25 25 24 29 29 26 22 19 15 11 11 10 14 13 12 7 5 4 5 6 8 12 15 15 13 14 17 20 22 24 26 27 27 27 26 27
4 13 3 1 6 5 5 5 5 12 17 17 23 25 21 22 26 24 21 16 10 6 3 3 2 5 7 6 1 7 9 12 15 13 9 7 10 13 16 19 21 23 24 26 26 26 26 26 26
4 4 2 2 1 3 2 3 2 14 18 21 25 22 21 22 20 19 16 11 5 5 6 9 6 4 3 1 2 3 4 3 3 6 9 12 15 17 19 21 22 23 23 23 24 24 25 25 25
1 2 4 5 5 2 1 2 1 6 20 26 24 20 22 21 21 18 17 15 15 14 11 9 7 5 6 6 4 2 1 2 5 8 11 13 15 17 18 19 19 19 20 20 21 22 24 27 28
Wind_Direction
34 91 33 310 232 239 123 108 103 128 140 85 131 186 80 43 360 45 148 158 157 151 149 148 145 154 148 142 142 134 133 122 118 108 109 111 118 104 86 28 41 40 44 49 53 52 60 65 63
348 344 298 249 250 191 116 103 145 110 118 128 108 120 109 78 72 132 145 156 155 152 148 151 151 156 151 149 151 149 147 141 136 140 132 140 157 140 43 24 29 51 51 59 60 56 55 60 59
357 335 244 246 278 91 94 116 126 119 131 148 121 65 67 73 110 142 158 153 153 156 151 154 156 163 159 153 158 160 162 159 156 170 191 213 274 36 43 32 38 62 65 62 57 52 45 42 41
351 277 232 247 119 74 36 96 145 140 127 102 129 100 79 114 134 152 156 152 154 158 153 154 164 170 172 170 168 168 164 163 157 161 176 166 122 103 79 70 66 57 53 46 42 41 36 30 29
27 249 204 132 106 63 10 297 168 141 128 131 149 119 85 135 144 157 158 154 159 160 158 158 161 170 182 188 184 170 162 151 137 125 120 112 98 92 84 71 70 66 55 45 42 36 28 24 21
343 331 208 134 68 24 40 143 164 135 129 140 124 127 133 173 163 159 159 156 160 164 161 165 163 168 169 167 165 155 140 126 122 122 115 102 95 88 75 64 59 55 50 38 29 20 13 8 1
13 342 86 106 22 81 38 135 186 157 147 149 140 143 163 165 159 161 158 159 159 166 166 166 171 171 168 164 158 147 138 129 121 114 112 106 93 75 61 55 49 39 28 21 11 3 357 351 344
4 293 162 72 84 65 4 240 283 221 140 143 158 174 168 177 162 163 162 161 163 165 169 174 173 172 178 167 158 152 146 135 127 115 96 77 67 58 55 50 38 25 12 3 358 354 349 344 336
327 254 159 98 88 89 19 287 132 164 147 165 180 142 164 174 165 168 167 169 170 171 170 173 175 177 175 166 161 155 149 142 124 105 90 83 77 69 60 54 50 48 43 40 35 29 19 9 359
222 264 143 62 43 35 358 318 209 201 171 193 175 181 162 171 173 175 175 178 178 177 175 176 177 175 171 170 163 160 156 146 135 127 120 103 84 70 61 50 46 44 41 38 32 28 21 14 5
163 238 163 142 79 342 343 48 233 232 208 223 214 187 173 177 180 183 183 186 184 182 183 182 181 184 178 171 171 168 163 158 159 145 116 100 82 58 46 36 31 22 14 10 2 359 359 354 353
220 238 210 155 161 357 331 322 258 245 357 290 223 202 182 185 187 188 189 188 189 192 187 187 188 188 192 188 185 184 182 180 168 142 135 109 58 28 18 6 360 355 348 342 340 338 335 332 330
221 212 210 176 174 314 326 306 301 261 265 283 204 194 190 188 191 187 192 194 193 194 195 192 195 192 194 198 198 198 201 198 193 173 153 48 4 351 343 340 338 337 331 328 327 324 322 320 320
219 218 208 194 189 259 287 313 306 8 265 239 205 195 196 196 194 188 196 198 197 197 199 202 199 199 202 203 204 205 206 198 196 219 301 342 337 333 328 326 324 324 320 319 316 314 312 311 310
227 210 200 211 217 245 268 264 247 321 281 232 206 194 195 197 193 198 199 199 198 200 203 207 210 209 209 207 209 206 212 221 233 276 308 315 313 307 308 309 312 312 313 314 314 315 313 311 307
155 205 219 198 204 224 213 252 261 319 248 241 221 209 200 197 200 199 200 200 199 198 198 201 213 216 215 215 211 218 229 246 263 280 287 293 297 303 309 313 316 313 310 312 312 312 307 304 301
162 221 212 214 190 222 215 253 220 292 251 245 231 220 204 198 202 202 201 202 201 200 203 201 205 214 217 215 218 230 241 257 274 279 284 287 298 302 303 305 304 301 304 305 302 301 304 304 304
165 193 204 208 185 217 223 249 226 253 253 251 237 220 208 203 207 206 205 208 211 212 212 214 216 218 224 228 233 239 251 265 269 272 280 290 297 302 301 306 308 305 305 304 305 306 307 307 309
170 155 143 198 93 210 217 233 234 219 258 247 233 216 207 199 198 202 208 214 217 219 222 224 226 230 233 241 246 251 257 266 267 275 285 298 300 301 308 307 303 302 303 304 305 306 307 309 310
137 154 166 136 154 220 209 236 244 214 245 256 254 212 194 175 190 204 208 216 221 223 229 231 232 238 240 243 248 252 257 260 258 270 282 292 298 299 300 303 307 310 313 313 313 313 314 316 322
197 193 183 107 115 38 173 260 242 240 201 219 246 194 185 183 190 199 196 199 208 216 222 227 231 236 238 242 246 251 253 240 233 282 298 304 311 315 317 321 323 325 327 326 326 324 323 322 326
222 221 155 138 163 232 197 264 210 225 211 167 158 144 152 161 165 172 177 176 179 187 196 206 212 221 229 237 240 243 225 200 143 25 3 337 334 335 336 336 335 334 333 329 330 331 331 330 327
164 153 149 176 153 80 200 259 229 213 218 203 156 141 130 133 146 148 147 147 142 138 141 148 155 157 141 126 105 92 81 71 62 46 17 359 354 350 348 342 337 335 335 334 332 331 331 330 327
142 100 61 55 140 232 197 205 222 193 218 175 145 135 130 126 128 127 130 131 127 124 116 113 123 112 107 104 99 90 77 68 66 49 32 17 5 357 353 349 345 343 342 342 340 338 335 336 333
155 135 137 190 228 235 108 201 243 222 209 184 155 144 136 128 127 125 123 118 114 111 110 102 101 101 96 95 90 81 67 41 28 22 6 355 348 330 324 332 336 337 337 333 330 331 331 328 324
182 203 206 210 191 158 106 225 176 333 136 147 145 138 132 126 126 124 122 118 110 105 95 94 81 81 79 65 44 33 16 348 326 325 306 297 303 319 325 330 330 328 330 330 328 327 326 325 323
163 206 355 97 25 180 194 234 178 132 132 139 138 139 133 130 131 128 125 122 119 103 83 71 63 64 61 51 36 31 4 323 325 323 316 314 310 312 319 327 329 331 328 326 327 326 324 324 324
240 142 128 174 185 222 195 247 220 178 160 154 151 149 142 142 141 139 135 128 114 89 72 73 278 270 265 250 238 290 305 295 292 291 297 317 326 325 326 324 323 323 322 322 323 324 324 325 325
145 183 63 116 236 241 195 205 17 186 172 164 160 156 153 152 148 142 132 123 143 166 174 189 181 175 184 214 265 256 229 242 310 324 332 331 329 324 321 320 320 320 321 323 323 325 326 328 330
26 204 189 220 188 251 350 256 323 220 180 168 158 153 156 149 142 141 137 142 156 166 168 171 174 181 184 186 169 167 275 320 330 331 328 325 321 321 322 324 326 327 329 332 333 338 341 343 343
Height
1552 1550 1550 1550 1550 1541 1543 1547 1544 1547 1547 1552 1552 1552 1552 1554 1554 1559 1564 1565 1568 1571 1573 1575 1577 1579 1580 1581 1583 1583 1583 1584 1584 1584 1584 1585 1585 1584 1584 1583 1582 1580 1579 1579 1578 1577 1576 1576 1575
1552 1551 1550 1549 1544 1541 1542 1544 1544 1547 1551 1553 1554 1554 1554 1557 1559 1560 1565 1566 1570 1572 1574 1576 1578 1580 1581 1582 1583 1584 1584 1585 1585 1586 1586 1586 1586 1585 1584 1583 1582 1581 1580 1580 1579 1578 1578 1577 1577
1551 1551 1551 1545 1543 1541 1544 1545 1546 1552 1554 1554 1555 1556 1557 1560 1560 1563 1564 1567 1571 1573 1575 1577 1579 1581 1582 1583 1584 1585 1585 1586 1586 1587 1587 1587 1587 1586 1585 1584 1583 1582 1581 1581 1581 1580 1579 1578 1578
1551 1552 1552 1544 1545 1545 1544 1546 1548 1551 1554 1554 1555 1557 1560 1560 1562 1564 1565 1569 1572 1574 1576 1578 1580 1581 1583 1584 1585 1585 1586 1586 1586 1587 1587 1587 1587 1587 1586 1585 1585 1584 1583 1582 1582 1581 1580 1579 1579
1551 1550 1546 1547 1546 1546 1548 1549 1550 1550 1552 1554 1556 1558 1562 1563 1563 1564 1567 1570 1573 1575 1577 1579 1581 1582 1583 1584 1585 1585 1586 1586 1587 1587 1587 1587 1587 1587 1587 1586 1586 1585 1584 1584 1583 1582 1581 1580 1579
1552 1551 1547 1555 1548 1547 1549 1551 1552 1552 1554 1556 1557 1558 1563 1562 1563 1565 1568 1572 1574 1576 1578 1580 1582 1583 1584 1585 1585 1586 1587 1587 1587 1587 1587 1588 1588 1588 1587 1587 1587 1586 1585 1585 1584 1583 1582 1581 1580
1554 1549 1551 1553 1553 1549 1552 1553 1553 1553 1554 1556 1557 1558 1563 1562 1563 1566 1569 1573 1575 1577 1578 1581 1583 1584 1585 1585 1586 1587 1587 1588 1588 1588 1588 1588 1589 1589 1589 1588 1588 1587 1586 1585 1584 1583 1582 1581 1579
1558 1554 1552 1551 1555 1557 1556 1555 1555 1555 1555 1556 1557 1556 1561 1561 1563 1566 1570 1572 1575 1577 1579 1580 1582 1584 1585 1586 1587 1587 1588 1589 1589 1589 1589 1590 1590 1590 1589 1589 1588 1587 1586 1585 1584 1583 1582 1581 1580
1558 1555 1552 1552 1553 1555 1556 1555 1555 1555 1556 1556 1557 1558 1558 1560 1563 1566 1569 1572 1575 1576 1578 1580 1582 1584 1585 1586 1587 1588 1589 1590 1590 1590 1590 1590 1590 1590 1590 1589 1588 1588 1587 1586 1584 1583 1582 1580 1578
1557 1556 1553 1555 1556 1554 1557 1556 1555 1556 1555 1556 1556 1556 1556 1559 1563 1566 1568 1570 1573 1576 1578 1580 1582 1584 1586 1588 1588 1589 1589 1589 1590 1590 1591 1591 1591 1590 1590 1590 1589 1588 1587 1586 1585 1584 1582 1580 1579
1557 1555 1555 1556 1557 1556 1556 1555 1555 1554 1553 1553 1554 1554 1556 1558 1562 1566 1569 1570 1573 1575 1577 1579 1582 1585 1586 1588 1589 1590 1590 1590 1590 1590 1591 1591 1591 1591 1591 1590 1589 1589 1588 1586 1585 1584 1582 1581 1579
1555 1557 1556 1557 1556 1556 1556 1556 1555 1554 1553 1552 1552 1553 1554 1556 1559 1565 1569 1571 1573 1575 1577 1579 1581 1584 1587 1588 1589 1590 1590 1590 1590 1590 1590 1591 1591 1591 1590 1590 1589 1588 1586 1585 1584 1582 1581 1579 1577
1552 1555 1557 1555 1556 1556 1556 1555 1555 1553 1552 1551 1551 1552 1554 1557 1559 1565 1570 1571 1572 1574 1577 1579 1581 1583 1585 1586 1588 1589 1590 1590 1590 1590 1590 1591 1591 1590 1590 1589 1588 1587 1585 1584 1582 1581 1579 1577 1575
1549 1553 1554 1553 1555 1556 1555 1553 1555 1552 1550 1550 1550 1552 1554 1557 1559 1563 1567 1570 1572 1574 1577 1579 1581 1582 1584 1585 1587 1588 1589 1589 1590 1590 1590 1590 1590 1589 1588 1587 1586 1585 1583 1582 1580 1578 1576 1575 1573
1551 1552 1551 1551 1552 1555 1556 1551 1551 1551 1550 1550 1550 1552 1554 1558 1561 1563 1566 1570 1572 1575 1577 1579 1580 1581 1582 1584 1586 1587 1588 1589 1589 1589 1589 1588 1587 1586 1586 1585 1584 1582 1581 1579 1577 1574 1572 1570 1568
1552 1553 1550 1544 1552 1554 1556 1549 1550 1550 1550 1550 1550 1552 1554 1558 1560 1564 1566 1570 1572 1574 1576 1577 1580 1581 1582 1583 1584 1586 1586 1587 1588 1587 1587 1586 1585 1584 1583 1582 1582 1579 1578 1576 1574 1571 1569 1566 1563
1551 1548 1550 1545 1550 1553 1551 1546 1547 1548 1549 1550 1550 1551 1554 1557 1560 1562 1565 1569 1571 1573 1575 1576 1578 1580 1582 1583 1583 1585 1585 1586 1586 1585 1585 1584 1584 1582 1582 1580 1579 1577 1574 1572 1570 1568 1564 1561 1559
1546 1548 1545 1546 1546 1552 1547 1545 1546 1546 1547 1549 1549 1551 1553 1556 1559 1562 1564 1568 1570 1571 1573 1575 1576 1577 1579 1581 1582 1583 1583 1584 1583 1583 1582 1582 1581 1580 1578 1577 1575 1573 1570 1567 1565 1562 1560 1557 1554
1536 1541 1545 1545 1548 1549 1544 1543 1541 1545 1545 1546 1547 1549 1551 1555 1558 1559 1561 1565 1567 1569 1571 1572 1574 1575 1577 1579 1580 1581 1581 1580 1580 1580 1580 1579 1578 1576 1575 1572 1571 1568 1566 1563 1561 1558 1556 1553 1549
1542 1539 1542 1550 1550 1555 1548 1545 1541 1542 1544 1545 1545 1546 1550 1553 1554 1555 1558 1562 1564 1567 1569 1570 1571 1572 1574 1575 1577 1578 1578 1577 1577 1577 1577 1575 1575 1573 1571 1568 1566 1564 1562 1560 1557 1554 1552 1550 1548
1538 1539 1542 1541 1551 1551 1548 1544 1538 1537 1543 1544 1543 1544 1547 1550 1550 1553 1556 1558 1561 1563 1565 1567 1567 1569 1570 1571 1573 1574 1574 1573 1572 1574 1575 1573 1572 1570 1568 1566 1564 1562 1559 1557 1554 1551 1549 1547 1546
1541 1538 1539 1545 1547 1550 1546 1544 1531 1530 1536 1541 1544 1544 1547 1547 1548 1551 1554 1556 1558 1560 1562 1563 1563 1565 1566 1568 1568 1570 1570 1570 1568 1572 1572 1572 1570 1568 1565 1564 1562 1561 1557 1556 1553 1550 1547 1545 1542
1538 1540 1541 1544 1550 1551 1550 1553 1522 1528 1534 1537 1543 1547 1546 1546 1548 1550 1552 1555 1557 1558 1560 1561 1562 1562 1564 1565 1568 1569 1571 1573 1568 1570 1571 1573 1572 1569 1566 1563 1561 1559 1557 1555 1551 1547 1544 1541 1540
1539 1542 1547 1552 1551 1550 1543 1548 1532 1532 1527 1536 1542 1546 1546 1547 1549 1551 1553 1556 1556 1558 1560 1562 1562 1561 1563 1566 1567 1569 1569 1576 1571 1568 1569 1571 1570 1569 1566 1563 1560 1559 1557 1554 1552 1548 1543 1539 1538
1533 1541 1551 1553 1550 1538 1547 1543 1526 1528 1529 1533 1539 1545 1548 1547 1550 1553 1554 1557 1558 1559 1559 1563 1568 1562 1565 1567 1568 1569 1569 1576 1572 1567 1565 1565 1565 1564 1565 1561 1559 1556 1554 1552 1552 1547 1542 1538 1535
1538 1536 1530 1534 1536 1535 1553 1539 1522 1531 1531 1535 1541 1545 1547 1549 1552 1555 1556 1557 1559 1561 1561 1565 1569 1563 1566 1567 1568 1565 1565 1570 1574 1566 1566 1563 1563 1564 1562 1559 1556 1553 1552 1551 1547 1543 1538 1536 1533
1536 1539 1539 1541 1559 1542 1535 1534 1534 1534 1536 1540 1544 1547 1549 1551 1553 1557 1559 1560 1561 1560 1565 1567 1565 1561 1568 1566 1567 1565 1566 1573 1576 1568 1566 1561 1562 1562 1561 1557 1556 1550 1547 1546 1542 1537 1533 1529 1526
1531 1536 1544 1544 1541 1535 1532 1531 1510 1532 1534 1540 1544 1548 1551 1554 1555 1557 1559 1561 1562 1562 1565 1566 1567 1567 1565 1567 1564 1564 1565 1570 1570 1569 1567 1563 1560 1558 1556 1557 1553 1548 1544 1540 1537 1533 1529 1524 1521
1538 1535 1540 1534 1537 1527 1523 1513 1524 1524 1530 1535 1542 1548 1551 1553 1556 1557 1558 1560 1561 1563 1564 1565 1566 1567 1568 1567 1566 1566 1568 1569 1568 1567 1564 1561 1559 1558 1555 1551 1546 1543 1539 1534 1531 1529 1525 1521 1518
1533 1530 1529 1520 1536 1535 1532 1516 1528 1528 1529 1534 1539 1546 1549 1553 1555 1558 1559 1561 1562 1563 1564 1564 1565 1566 1567 1570 1568 1568 1567 1566 1565 1563 1561 1559 1557 1554 1551 1547 1543 1538 1534 1529 1527 1522 1519 1515 1512